Torna al catalogo

ARIANE 5 DEB

SYLDA

AttivoHEO
NORAD 33277·DEBRIS·🇫🇷 France

Lanciato Aug 14, 2008 da Guiana Space Centre

Loading…

Prossimi Passaggi (prossime 24 ore)

TLE

AggiornatoSource: Space-Track

Epoca: Sep 14, 2026, 12:25 UTC

1 33277U 08038D   26257.51784155  .00000350  00000-0  11500-2 0  9996
2 33277   2.4674  68.1928 5510096 230.5414  66.4636  4.52742781248001

Traccia ARIANE 5 DEB in tempo reale con AllMySat

Download on the App Store